sat.trackr.live / text

‹ back to catalog

ASTRA 2G

NORAD 40364 · 2014-089A

PAYLOAD ACTIVE UNKNOWN

§ Identity

Operator
Country
SES
Launch date
2014-12-27
Launch site
TYMSC
Launch vehicle
Mass (kg)
RCS (m²)
0.00

Purposes: comms

External: N2YO · Heavens-Above · Gunter

§ Orbital elements

Epoch: 2026-05-25T03:52:38.992224Z

Period
1,436.10 min
Inclination
0.0560°
Eccentricity
0.0004921
Mean motion
1.00271733 rev/d
Perigee alt
35,765.9 km
Apogee alt
35,807.4 km
Semi-major
42,164.7 km
B*
0.0000e+0
RAAN
23.3396°
Arg perigee
35.1727°
Mean anomaly
270.5904°
Rev number
4,173

§ Raw data

ASTRA 2G1 40364U 14089A   26145.16156241  .00000147  00000+0  00000+0 0  99932 40364   0.0560  23.3396 0004921  35.1727 270.5904  1.00271733 41733

JSON: /api/v1/satellites/40364 · /tle

For live sub-satellite position, see the globe view (requires WebGL).

§ Visibility from observer

Set your observer location to see the next 7 days of passes ≥ 10°. The values pass through the URL so the page stays shareable.

No JS? Fill the form by hand. The geolocation button needs JavaScript.